Tracking 35036 objects as of 15-Aug-2026
HD Live streaming from Space Station
objects crossing your sky now

STARLINK-38179


10-day predictions
STARLINK-38179 is classified as:


NORAD ID: 100150
Int'l Code: 2026-171C
Launch date: July 25, 2026
Source: United States (US)
Launch site: AIR FORCE WESTERN TEST RANGE (AFWTR)
Your satellite tracking list
Your tracking list is empty




NASA's NSSDC Master Catalog

Two Line Element Set (TLE):
1 A0150U 26171C   26227.64707186  .00169867  00000-0  11173-2 0  9993
2 A0150  97.2845 259.5707 0000832 101.0166 259.1193 15.75188411  3336
Source of the keplerian elements: AFSPC